Regional Weather Roundup
Issued by NWS

Home | Current Version | Previous Version | Graphics & Text | Print | Product List | Glossary On
Versions: 1 2 3 4 5 6 7 8 9 10 11 12 13 14 15 16 17 18 19 20 21 22 23 24 25 26 27 28
000
ASUS45 KBOI 260110
RWRID

IDAHO REGIONAL WEATHER ROUNDUP
NATIONAL WEATHER SERVICE BOISE ID
700 PM MDT WED APR 25 2018

NOTE: "FAIR" INDICATES FEW OR NO CLOUDS BELOW 12000 FEET
WITH NO SIGNIFICANT WEATHER AND/OR OBSTRUCTIONS TO VISIBILITY

IDZ012-014-260200-
SOUTHWEST IDAHO


CITY           SKY/WX    TMP DP  RH WIND       PRES   REMARKS
BOISE          SUNNY     75  25  15 NW10      30.08F
CALDWELL       SUNNY     76  35  22 NW7       30.08F
MOUNTAIN HOME  SUNNY     75  26  16 N18       30.07S
$$

IDZ016-017-260200-
SOUTHCENTRAL IDAHO


CITY           SKY/WX    TMP DP  RH WIND       PRES   REMARKS
BURLEY         SUNNY     68  21  16 W12G23    30.08F
JEROME         SUNNY     68  25  19 W15       30.10S
TWIN FALLS     SUNNY     69  21  16 W17       30.10F
$$

IDZ019>023-260200-
SOUTHEAST IDAHO


CITY           SKY/WX    TMP DP  RH WIND       PRES   REMARKS
IDAHO FALLS    PTSUNNY   64  26  23 SW12      30.09F
POCATELLO      PTSUNNY   65  30  27 W12       30.10R
REXBURG        FAIR      63  25  23 W10       30.09S
$$

IDZ006-010-011-018-031-032-260200-
CENTRAL IDAHO MOUNTAINS


CITY           SKY/WX    TMP DP  RH WIND       PRES   REMARKS
MCCALL         PTSUNNY   64  31  28 W8        30.15S
HAILEY         SUNNY     66  25  20 W12       30.11F
STANLEY          N/A     59  23  25 VRB7      30.21S
SALMON         SUNNY     69  29  22 NW8       30.07R
CHALLIS        SUNNY     69  22  16 W14       30.10S
$$

IDZ002-004-006-007-026-260200-
NORTHERN IDAHO


CITY           SKY/WX    TMP DP  RH WIND       PRES   REMARKS
LEWISTON       SUNNY     76  35  22 NW9       30.07S
LOWELL           N/A     66  42  41 VRB3      30.06R
COEUR D`ALENE  PTSUNNY   72  27  18 W7        30.10R
MULLAN PASS    SUNNY     54  24  31 NW6       30.20R
$$




USA.gov is the U.S. government's official web portal to all federal, state and local government web resources and services.